SV1BYK-2 Weather Reports


Display with metric or nautical units.
time (UTC)temp
F
wind
direction
speed
MPH
gust
MPH
rain 1hr
in
rain 24hr
in
rain mn
in
humidity
%
barometer
mb
20260906205404 85 270 1.0 2.0 0.00 0.00 0.00 37 1012.3
20260906204715 85 276 0.0 2.0 0.00 0.00 0.00 37 1012.6
20260906203603 85 313 1.0 2.0 0.00 0.00 0.00 37 1012.4
20260906202915 85 327 1.0 4.0 0.00 0.00 0.00 37 1012.5
20260906201803 86 275 1.0 2.0 0.00 0.00 0.00 36 1012.4
20260906201115 86 236 0.0 2.0 0.00 0.00 0.00 36 1012.3
20260906200004 87 213 2.0 4.0 0.00 0.00 0.00 35 1012.4
20260906195614 87 217 2.0 4.0 0.00 0.00 0.00 35 1012.2
20260906194503 87 214 2.0 4.0 0.00 0.00 0.00 37 1012.6
20260906193604 86 162 1.0 2.0 0.00 0.00 0.00 38 1012.3
20260906192916 86 123 1.0 2.0 0.00 0.00 0.00 39 1012.2
20260906191804 86 252 2.0 4.0 0.00 0.00 0.00 40 1012.2
20260906190903 86 249 1.0 2.0 0.00 0.00 0.00 41 1012.0
20260906190004 87 264 1.0 6.0 0.00 0.00 0.00 41 1012.3
20260906185614 87 237 1.0 6.0 0.00 0.00 0.00 41 1012.2
20260906184503 87 287 2.0 4.0 0.00 0.00 0.00 41 1012.3
20260906183814 87 300 0.0 4.0 0.00 0.00 0.00 40 1011.9
20260906182703 88 282 2.0 4.0 0.00 0.00 0.00 40 1011.7
20260906181804 88 284 1.0 7.0 0.00 0.00 0.00 39 1011.7
20260906181116 88 235 1.0 4.0 0.00 0.00 0.00 39 1011.8
20260906180004 89 248 2.0 4.0 0.00 0.00 0.00 38 1011.4
20260906175403 89 233 1.0 4.0 0.00 0.00 0.00 37 1011.5
20260906174717 90 223 2.0 4.0 0.00 0.00 0.00 36 1011.3
20260906173815 90 231 0.0 4.0 0.00 0.00 0.00 34 1011.2
20260906172917 90 242 2.0 4.0 0.00 0.00 0.00 32 1011.1
20260906171803 90 216 0.0 2.0 0.00 0.00 0.00 34 1010.8
20260906170904 90 214 1.0 4.0 0.00 0.00 0.00 36 1010.7
20260906170004 90 157 0.0 2.0 0.00 0.00 0.00 42 1010.8
20260906165616 90 157 0.0 2.0 0.00 0.00 0.00 42 1010.6
20260906164504 91 157 2.0 2.0 0.00 0.00 0.00 41 1010.4
20260906163815 92 177 0.0 2.0 0.00 0.00 0.00 39 1010.5
20260906162703 94 241 1.0 4.0 0.00 0.00 0.00 36 1010.5
20260906162015 94 253 0.0 4.0 0.00 0.00 0.00 35 1010.6
20260906161117 94 216 2.0 4.0 0.00 0.00 0.00 34 1010.6
20260906160004 95 138 1.0 4.0 0.00 0.00 0.00 34 1010.1
20260906155403 95 126 1.0 4.0 0.00 0.00 0.00 33 1010.5
20260906154713 94 127 2.0 4.0 0.00 0.00 0.00 33 1010.4
20260906153816 95 108 2.0 6.0 0.00 0.00 0.00 33 1010.3
20260906152703 96 174 3.0 6.0 0.00 0.00 0.00 31 1010.4
20260906151803 96 170 2.0 7.0 0.00 0.00 0.00 31 1010.4
20260906150903 96 165 3.0 7.0 0.00 0.00 0.00 31 1010.2
20260906150004 96 188 2.0 9.0 0.00 0.00 0.00 32 1010.4
20260906145617 97 159 2.0 7.0 0.00 0.00 0.00 31 1009.9
20260906144714 96 118 2.0 7.0 0.00 0.00 0.00 31 1010.0
20260906143817 96 111 1.0 8.0 0.00 0.00 0.00 31 1010.3
20260906142704 96 154 3.0 7.0 0.00 0.00 0.00 30 1010.1
20260906142016 96 118 4.0 8.0 0.00 0.00 0.00 31 1010.2
20260906141113 96 109 3.0 8.0 0.00 0.00 0.00 30 1010.2
20260906140216 97 218 1.0 8.0 0.00 0.00 0.00 30 1010.5
20260906135617 97 162 3.0 7.0 0.00 0.00 0.00 30 1010.3
20260906134504 96 111 4.0 7.0 0.00 0.00 0.00 31 1010.3
20260906133603 96 121 4.0 7.0 0.00 0.00 0.00 31 1010.2
20260906132703 96 104 3.0 8.0 0.00 0.00 0.00 31 1010.3
20260906132017 97 126 4.0 8.0 0.00 0.00 0.00 30 1010.2
20260906131114 97 106 2.0 7.0 0.00 0.00 0.00 30 1010.4
20260906130004 97 127 2.0 8.0 0.00 0.00 0.00 31 1010.2
20260906125613 96 112 4.0 8.0 0.00 0.00 0.00 33 1010.2
20260906124715 96 146 4.0 8.0 0.00 0.00 0.00 34 1010.3
20260906123813 95 129 3.0 7.0 0.00 0.00 0.00 32 1010.1
20260906122703 96 163 4.0 9.0 0.00 0.00 0.00 32 1010.4
20260906121803 95 174 4.0 8.0 0.00 0.00 0.00 32 1010.7
20260906120903 94 195 4.0 11.0 0.00 0.00 0.00 33 1010.5
20260906120217 95 113 3.0 8.0 0.00 0.00 0.00 32 1010.6
20260906115403 94 114 4.0 8.0 0.00 0.00 0.00 31 1010.5
20260906114716 94 108 4.0 11.0 0.00 0.00 0.00 34 1010.8
20260906113604 95 106 6.0 9.0 0.00 0.00 0.00 33 1010.6
20260906112704 97 123 2.0 7.0 0.00 0.00 0.00 33 1010.5
20260906112013 100 109 1.0 7.0 0.00 0.00 0.00 24 1010.5
20260906110903 100 171 2.0 7.0 0.00 0.00 0.00 24 1010.6
20260906110004 99 152 4.0 7.0 0.00 0.00 0.00 24 1010.3
20260906105403 99 265 2.0 8.0 0.00 0.00 0.00 24 1010.4
20260906104503 98 234 3.0 6.0 0.00 0.00 0.00 24 1010.6
20260906103814 99 77 2.0 7.0 0.00 0.00 0.00 24 1010.3
20260906102916 98 291 1.0 4.0 0.00 0.00 0.00 25 1010.6
20260906102014 97 282 3.0 4.0 0.00 0.00 0.00 26 1010.6
20260906100904 96 285 3.0 8.0 0.00 0.00 0.00 26 1010.4
20260906100004 97 303 2.0 7.0 0.00 0.00 0.00 25 1010.7
20260906095615 97 335 2.0 4.0 0.00 0.00 0.00 26 1010.6
20260906094504 98 31 0.0 6.0 0.00 0.00 0.00 25 1010.9
20260906093815 95 302 0.0 8.0 0.00 0.00 0.00 27 1010.9
20260906092917 96 189 2.0 4.0 0.00 0.00 0.00 26 1010.9
20260906092014 98 197 2.0 4.0 0.00 0.00 0.00 25 1011.1
20260906091117 97 254 0.0 4.0 0.00 0.00 0.00 26 1011.0
20260906090004 96 262 1.0 6.0 0.00 0.00 0.00 26 1011.1
20260906085404 93 267 1.0 6.0 0.00 0.00 0.00 28 1011.1
20260906084504 96 106 2.0 4.0 0.00 0.00 0.00 25 1011.1
20260906083815 96 148 2.0 2.0 0.00 0.00 0.00 26 1010.9
20260906082918 96 239 0.0 2.0 0.00 0.00 0.00 26 1010.9
20260906082015 95 93 0.0 4.0 0.00 0.00 0.00 26 1011.3
20260906081117 94 111 2.0 4.0 0.00 0.00 0.00 26 1011.2
20260906080004 95 107 0.0 2.0 0.00 0.00 0.00 26 1011.4
20260906075616 95 130 1.0 4.0 0.00 0.00 0.00 26 1011.3
20260906074504 93 117 2.0 4.0 0.00 0.00 0.00 27 1011.1
20260906073604 94 235 0.0 2.0 0.00 0.00 0.00 27 1011.2
20260906072704 93 247 1.0 2.0 0.00 0.00 0.00 28 1011.2
20260906071803 91 247 1.0 2.0 0.00 0.00 0.00 29 1011.0
20260906071113 91 247 0.0 2.0 0.00 0.00 0.00 30 1011.2
20260906070004 90 247 1.0 2.0 0.00 0.00 0.00 29 1011.0
20260906065403 87 247 0.0 2.0 0.00 0.00 0.00 32 1011.2
20260906064714 88 247 0.0 2.0 0.00 0.00 0.00 31 1010.9
20260906063817 87 247 0.0 2.0 0.00 0.00 0.00 32 1010.9
20260906062704 87 261 0.0 2.0 0.00 0.00 0.00 32 1010.7
20260906062016 85 270 1.0 2.0 0.00 0.00 0.00 34 1010.5
20260906061114 84 282 0.0 2.0 0.00 0.00 0.00 36 1010.4
20260906060216 83 292 0.0 2.0 0.00 0.00 0.00 37 1010.5
20260906055617 82 279 1.0 2.0 0.00 0.00 0.00 37 1010.4
20260906054503 82 292 0.0 2.0 0.00 0.00 0.00 38 1010.5
20260906053817 82 292 0.0 2.0 0.00 0.00 0.00 37 1010.4
20260906052914 80 280 1.0 4.0 0.00 0.00 0.00 38 1010.5
20260906052017 80 297 0.0 4.0 0.00 0.00 0.00 38 1010.4
20260906050904 78 299 1.0 4.0 0.00 0.00 0.00 39 1010.4
20260906050004 77 279 2.0 4.0 0.00 0.00 0.00 41 1010.6
20260906045613 76 263 0.0 2.0 0.00 0.00 0.00 41 1010.5
20260906044715 76 247 1.0 2.0 0.00 0.00 0.00 41 1010.4
20260906043813 75 247 0.0 2.0 0.00 0.00 0.00 41 1010.3
20260906042915 75 247 1.0 2.0 0.00 0.00 0.00 42 1010.3
20260906042018 75 247 0.0 2.0 0.00 0.00 0.00 41 1009.9
20260906040903 75 247 0.0 2.0 0.00 0.00 0.00 42 1010.1
20260906040004 75 251 0.0 2.0 0.00 0.00 0.00 41 1010.1
20260906035403 75 247 0.0 2.0 0.00 0.00 0.00 41 1009.8
20260906034504 75 245 1.0 2.0 0.00 0.00 0.00 41 1010.1
20260906033813 75 225 0.0 2.0 0.00 0.00 0.00 41 1009.8
20260906032703 75 225 0.0 2.0 0.00 0.00 0.00 41 1010.0
20260906032013 75 225 0.0 2.0 0.00 0.00 0.00 41 1009.7
20260906030903 76 245 0.0 2.0 0.00 0.00 0.00 41 1009.7
20260906030218 76 246 1.0 2.0 0.00 0.00 0.00 41 1010.0
20260906025614 76 247 0.0 2.0 0.00 0.00 0.00 41 1009.7
20260906024717 76 247 0.0 2.0 0.00 0.00 0.00 41 1009.5
20260906023814 76 247 0.0 2.0 0.00 0.00 0.00 41 1009.4
20260906022704 76 245 0.0 2.0 0.00 0.00 0.00 41 1009.4
20260906021803 76 241 0.0 2.0 0.00 0.00 0.00 41 1009.6
20260906021116 76 247 0.0 2.0 0.00 0.00 0.00 41 1009.4
20260906020004 76 244 0.0 2.0 0.00 0.00 0.00 41 1009.4
20260906015403 76 244 0.0 2.0 0.00 0.00 0.00 41 1009.4
20260906014503 76 251 0.0 2.0 0.00 0.00 0.00 40 1009.5
20260906013815 76 255 0.0 2.0 0.00 0.00 0.00 40 1009.4
20260906012703 76 0 0.0 0.0 0.00 0.00 0.00 40 1009.5
20260906011803 76 0 0.0 0.0 0.00 0.00 0.00 40 1009.7
20260906011117 76 270 0.0 2.0 0.00 0.00 0.00 40 1009.7
20260906010214 77 270 0.0 2.0 0.00 0.00 0.00 40 1009.7
20260906005404 77 270 0.0 4.0 0.00 0.00 0.00 39 1009.6
20260906004713 77 270 2.0 4.0 0.00 0.00 0.00 39 1009.8
20260906003815 76 270 0.0 2.0 0.00 0.00 0.00 40 1009.3
20260906002703 77 270 0.0 2.0 0.00 0.00 0.00 39 1009.5
20260906002015 77 270 0.0 2.0 0.00 0.00 0.00 39 1009.8
20260906000903 77 270 1.0 2.0 0.00 0.00 0.00 39 1009.6
20260906000215 77 265 0.0 2.0 0.00 0.00 0.00 39 1009.7
20260905235404 77 242 1.0 2.0 0.00 0.00 0.00 39 1009.6
20260905234713 78 236 0.0 2.0 0.00 0.00 0.00 39 1009.6
20260905233816 78 239 0.0 2.0 0.00 0.00 0.00 39 1009.9
20260905232704 78 247 0.0 2.0 0.00 0.00 0.00 39 1010.0
20260905232016 79 241 0.0 2.0 0.00 0.00 0.00 39 1010.1
20260905231113 79 241 0.0 4.0 0.00 0.00 0.00 38 1010.3
20260905230004 79 225 0.0 2.0 0.00 0.00 0.00 39 1010.2
20260905225617 78 225 0.0 2.0 0.00 0.00 0.00 39 1010.2
20260905224503 79 228 0.0 2.0 0.00 0.00 0.00 38 1010.3
20260905223603 79 247 0.0 2.0 0.00 0.00 0.00 38 1010.4
20260905222914 79 247 0.0 2.0 0.00 0.00 0.00 38 1010.5
20260905221804 79 0 0.0 0.0 0.00 0.00 0.00 38 1010.6
20260905221113 79 0 0.0 0.0 0.00 0.00 0.00 38 1010.4
20260905220216 79 0 0.0 0.0 0.00 0.00 0.00 38 1010.4
20260905215617 79 247 0.0 2.0 0.00 0.00 0.00 38 1010.4
20260905214715 80 247 0.0 2.0 0.00 0.00 0.00 38 1010.2
20260905213817 80 281 0.0 2.0 0.00 0.00 0.00 38 1010.4
20260905212914 81 292 0.0 2.0 0.00 0.00 0.00 36 1010.4
20260905212017 81 286 0.0 2.0 0.00 0.00 0.00 37 1010.4
20260905210904 81 292 0.0 2.0 0.00 0.00 0.00 38 1010.3
20260905210222 81 0 0.0 0.0 0.00 0.00 0.00 37 1010.3